Location: ??????
(55.0357°N, 38.6195°E)
Time: 04:53:57
(UTC+00:00)

COSMOS 2441 - Pass Details

Date: 14 April 2024
Orbit: 705 x 730 km, 98.2° (Epoch: 23 May)

Event Time Altitude Azimuth Distance (km) Brightness Sun altitude
Rises 23:58:58 0° 15° (NNE) 3,168 8.9 -18.0°
Reaches altitude 10° 00:01:15 10° 15° (NNE) 2,240 7.9 -17.7°
Maximum altitude 00:06:12 89° 293° (WNW) 736 4.3 -17.3°
Enters shadow 00:08:53 27° 198° (SSW) 1,368 5.3 -17.0°
